Regional Weather Roundup
Issued by NWS

Home | Current Version | Previous Version | Graphics & Text | Print | Product List | Glossary On
Versions: 1 2 3 4 5 6 7 8 9 10 11 12 13 14 15 16 17 18 19 20 21 22 23 24 25 26 27 28 29 30 31 32 33 34 35 36 37 38 39 40 41 42 43 44 45 46 47 48 49 50
000
ASUS43 KTOP 211908
RWRKS

WEATHER ROUNDUP FOR KANSAS
NATIONAL WEATHER SERVICE GOODLAND KS
200 PM CDT THU AUG 21 2014

NOTE:  "FAIR" INDICATES FEW OR NO CLOUDS BELOW 12,000 FEET WITH NO
SIGNIFICANT WEATHER AND/OR OBSTRUCTIONS TO VISIBILITY.

KSZ001>006-013>018-027>032-041>047-212000-
NORTHWEST KANSAS

CITY           SKY/WX    TMP DP  RH WIND       PRES   REMARKS
GOODLAND       SUNNY     90  49  24 N12G18    29.98F
HAYS           SUNNY     97  66  36 S18       29.85S HX 100
HILL CITY      SUNNY     93  65  39 VRB5      29.86F HX  95
RUSSELL        MOSUNNY   98  65  33 S20G30    29.83S HX 101
$$

KSZ061>065-074>080-084>089-212000-
SOUTHWEST KANSAS

CITY           SKY/WX    TMP DP  RH WIND       PRES   REMARKS
DODGE CITY     SUNNY     96  62  32 S13G23    29.88F HX  97
ELKHART          N/A     91  59  34 N6          N/A
GARDEN CITY    SUNNY     92  61  35 W8        29.90F
GREAT BEND     SUNNY     95  64  36 S18G25    29.85F HX  97
LIBERAL        SUNNY     97  57  26 W12G22    29.92S HX  95
PRATT          SUNNY     95  61  31 S18G29    29.90S HX  95
$$

KSZ066>073-081>083-090>101-212000-
SOUTHEAST KANSAS

CITY           SKY/WX    TMP DP  RH WIND       PRES   REMARKS
CHANUTE        SUNNY     96  70  42 S20G26    29.94F HX 102
COFFEYVILLE    SUNNY     95  74  50 S16G24    29.94F HX 105
HUTCHINSON     SUNNY     99  65  32 S17G24    29.88F HX 102
MEDICINE LODGE   N/A     97  66  36 SW16G24   29.87F HX 100
NEWTON         SUNNY     95  66  38 S24G31    29.92F HX  98
PARSONS        SUNNY     96  71  44 S13       29.96F HX 103
WICHITA INTL   SUNNY     97  66  36 S22       29.88F HX 100
WICHITA JABRA  SUNNY     94  69  44 S20G28    29.90F HX  99
WICHITA MCCONL SUNNY     95  69  42 S23       29.90F HX 100
WINFIELD       SUNNY     96  70  42 S22G29    29.93F HX 102
$$

KSZ007>012-019>026-033>040-048>060-102>105-212000-
NORTHEAST KANSAS

CITY           SKY/WX    TMP DP  RH WIND       PRES   REMARKS
CONCORDIA      SUNNY     92  70  48 S16       29.83F HX  97
EMPORIA        SUNNY     95  69  42 S21G29    29.90F HX 100
LAWRENCE       MOSUNNY   98  71  41 SW16      29.88F HX 106
MANHATTAN      SUNNY    100  69  36 SW16G22   29.84F HX 106
MARYSVILLE     MOSUNNY   93  72  49 SW14G21   29.84S HX 100
OLATHE IND     MOSUNNY   94  70  45 S17       29.92F HX 100
OLATHE EXE     MOSUNNY   92  72  51 SW13G22   29.91F HX  99
SALINA         SUNNY     97  66  36 S17G30    29.84F HX 100
TOPEKA BILLARD SUNNY     97  70  41 S13G25    29.86F HX 103
TOPEKA FORBES  SUNNY     98  69  38 S21G26    29.87F HX 104
$$


USA.gov is the U.S. government's official web portal to all federal, state and local government web resources and services.